Temperature
5 5 5 6 6 6 6 6 6 6 6 6 7 7 7 7 7 7 8 8 8 8 8 8 8 8 8 8 8 8 8 8 8 8 9 9 9 9 9 9 9 9 9
4 4 4 5 5 5 5 5 5 5 6 6 6 6 6 6 6 6 7 7 7 7 7 7 7 7 8 8 7 7 8 8 8 8 8 8 8 8 8 8 8 8 8
4 4 4 4 4 4 4 4 4 4 5 5 5 5 5 5 5 5 5 6 6 6 6 6 6 6 6 7 7 7 7 7 7 7 7 7 8 8 7 7 7 7 7
3 3 3 3 3 3 3 3 3 3 3 3 4 4 4 4 4 4 4 4 5 5 5 5 5 5 5 5 6 6 6 6 6 6 6 6 7 7 6 6 6 6 6
3 3 2 2 2 2 2 2 2 2 2 3 3 3 3 3 3 3 3 3 3 4 4 4 4 4 4 4 4 5 4 5 5 5 5 5 5 5 5 6 5 5 5
2 2 2 2 2 2 2 2 1 1 1 2 1 1 2 2 2 2 2 2 2 2 3 3 3 3 3 3 3 4 4 4 4 4 4 4 4 5 5 5 5 4 4
2 2 1 1 1 1 1 1 1 1 1 1 1 1 1 1 1 1 1 1 1 1 1 1 2 2 2 2 2 3 3 3 3 3 3 3 3 4 4 4 4 4 4
1 1 1 1 1 1 0 0 0 0 -0 -0 -0 -1 -1 -0 -0 -0 -0 -0 -0 -0 0 0 0 1 1 1 1 2 2 2 2 2 2 3 3 3 3 4 4 3 3
1 1 0 0 -0 -0 -0 -1 -1 -1 -1 -1 -1 -2 -2 -2 -2 -2 -2 -2 -2 -2 -1 -1 -1 -1 -0 -0 -0 0 1 1 1 1 2 2 2 3 3 2 2 2 2
0 0 -0 -1 -1 -1 -1 -1 -2 -2 -2 -2 -2 -2 -3 -3 -3 -3 -3 -3 -4 -3 -3 -3 -2 -2 -2 -2 -2 -2 -1 -0 0 1 1 1 2 2 2 2 2 2 2
-0 -1 -1 -1 -2 -2 -2 -2 -3 -3 -3 -3 -3 -3 -4 -4 -4 -4 -4 -5 -5 -5 -5 -4 -4 -3 -3 -3 -3 -3 -2 -2 -1 -1 -0 0 1 1 1 1 1 2 2
-1 -1 -1 -2 -2 -2 -3 -3 -3 -4 -4 -4 -4 -4 -4 -5 -5 -5 -5 -6 -6 -6 -6 -5 -5 -4 -4 -4 -3 -3 -3 -3 -2 -2 -1 -1 -1 -0 -0 0 1 1 1
-1 -2 -2 -2 -3 -3 -3 -4 -4 -4 -5 -5 -5 -5 -5 -6 -6 -6 -6 -6 -6 -6 -6 -6 -5 -5 -5 -4 -4 -4 -3 -3 -3 -3 -3 -2 -2 -1 -1 -1 -0 -0 0
-2 -2 -2 -3 -3 -3 -4 -4 -5 -5 -6 -6 -7 -7 -7 -7 -7 -7 -7 -7 -7 -7 -7 -6 -6 -5 -5 -5 -5 -4 -4 -4 -4 -4 -3 -3 -3 -3 -2 -1 -1 -1 -1
-2 -2 -3 -3 -4 -4 -5 -5 -5 -6 -7 -7 -7 -8 -8 -8 -8 -8 -8 -8 -8 -7 -7 -7 -6 -6 -6 -6 -5 -5 -5 -5 -5 -4 -4 -4 -4 -4 -3 -3 -2 -2 -1
-3 -3 -4 -4 -5 -5 -5 -5 -6 -6 -6 -7 -7 -8 -8 -8 -8 -8 -8 -8 -8 -8 -8 -7 -7 -7 -7 -6 -6 -6 -6 -6 -5 -5 -5 -5 -4 -4 -4 -3 -3 -2 -2
-3 -4 -4 -5 -5 -6 -6 -6 -6 -6 -6 -7 -7 -7 -8 -8 -8 -8 -8 -8 -8 -8 -8 -8 -8 -8 -7 -7 -7 -7 -7 -6 -6 -6 -6 -5 -5 -5 -4 -4 -4 -3 -3
-4 -5 -5 -5 -6 -6 -7 -7 -8 -8 -8 -7 -7 -7 -8 -8 -8 -8 -9 -8 -8 -8 -8 -8 -8 -8 -8 -8 -7 -7 -7 -7 -6 -6 -6 -6 -5 -5 -5 -5 -4 -4 -3
-5 -5 -5 -6 -6 -7 -7 -8 -8 -8 -9 -9 -8 -8 -8 -9 -9 -9 -9 -9 -9 -9 -9 -9 -9 -9 -8 -8 -8 -8 -7 -7 -7 -6 -6 -6 -6 -6 -5 -5 -5 -4 -4
-5 -5 -6 -6 -7 -7 -8 -8 -9 -9 -9 -9 -9 -9 -9 -9 -9 -9 -9 -10 -10 -10 -10 -9 -9 -9 -9 -9 -8 -8 -8 -7 -7 -7 -6 -6 -6 -6 -6 -5 -5 -5 -4
-5 -6 -6 -7 -7 -7 -8 -8 -9 -9 -10 -10 -10 -10 -10 -10 -10 -10 -10 -10 -10 -10 -10 -10 -10 -9 -9 -9 -8 -8 -8 -8 -7 -7 -7 -6 -6 -6 -6 -6 -5 -5 -5
-6 -6 -7 -7 -7 -8 -8 -9 -9 -10 -10 -10 -10 -10 -10 -10 -10 -10 -10 -10 -10 -10 -10 -10 -10 -10 -9 -9 -9 -8 -8 -8 -7 -7 -7 -7 -7 -6 -6 -6 -6 -5 -5
-6 -7 -7 -7 -8 -8 -8 -9 -9 -10 -10 -10 -10 -10 -10 -10 -10 -10 -10 -10 -10 -10 -10 -10 -10 -9 -9 -9 -9 -9 -8 -8 -7 -7 -7 -7 -7 -6 -6 -6 -6 -6 -6
-7 -7 -7 -8 -8 -8 -9 -9 -9 -10 -10 -10 -10 -10 -11 -11 -11 -11 -10 -10 -10 -10 -10 -10 -9 -9 -9 -9 -9 -8 -8 -8 -8 -7 -7 -7 -7 -6 -6 -6 -6 -6 -6
-7 -7 -8 -8 -8 -9 -9 -9 -10 -10 -10 -10 -11 -11 -11 -11 -11 -10 -10 -10 -10 -10 -10 -9 -9 -9 -9 -9 -8 -8 -8 -8 -7 -7 -7 -7 -7 -7 -6 -6 -6 -6 -6
-7 -8 -8 -8 -9 -9 -9 -10 -10 -10 -10 -10 -11 -11 -11 -11 -11 -10 -10 -10 -10 -10 -9 -9 -9 -9 -9 -8 -8 -8 -8 -7 -7 -7 -7 -7 -7 -7 -6 -6 -6 -6 -6
Wind_Speed
11 11 11 10 10 10 9 10 9 9 10 10 9 8 8 8 7 6 5 4 4 4 4 6 8 8 7 7 7 8 8 8 10 6 5 5 8 9 8 12 13 13 14
10 10 10 10 10 10 11 10 10 10 10 10 10 10 10 9 9 8 8 6 5 5 4 4 5 5 7 7 7 9 9 9 9 9 6 6 8 10 9 10 8 11 12
9 9 10 10 10 10 10 10 10 10 10 10 10 10 10 9 9 9 8 8 7 6 5 5 5 5 7 6 7 8 8 8 8 8 7 6 5 6 8 7 8 7 8
8 9 9 9 9 9 9 9 9 9 9 9 9 9 9 9 9 9 9 9 8 7 7 6 6 6 7 7 7 8 8 8 8 8 7 6 5 6 7 7 7 7 7
7 7 8 8 8 8 8 8 8 9 9 9 9 9 8 8 9 11 10 10 10 9 9 8 7 8 9 8 8 8 9 8 8 8 8 6 6 7 9 7 9 7 7
6 6 7 7 7 7 8 8 8 8 8 8 9 9 9 8 12 14 12 10 10 10 10 10 9 9 9 11 12 12 11 11 10 10 9 10 10 9 9 8 8 7 6
5 5 6 7 7 8 8 8 9 9 9 9 9 9 9 10 14 15 15 11 10 9 10 10 9 9 10 10 11 12 12 13 14 12 12 12 11 10 11 11 11 11 9
4 5 6 7 8 8 8 9 9 9 9 9 9 10 10 10 14 15 16 12 10 10 10 11 11 11 10 12 12 11 12 12 12 12 12 12 10 10 11 12 11 8 3
4 5 6 7 8 8 9 9 9 9 9 9 9 10 10 11 13 15 15 10 10 11 11 11 11 12 14 15 13 12 12 11 11 13 14 13 13 14 12 8 8 8 6
5 6 6 7 7 8 9 9 9 9 9 10 10 10 10 11 13 15 15 9 10 11 11 11 12 13 16 16 13 12 13 11 9 10 10 10 11 12 15 13 11 10 6
5 5 6 6 7 8 8 8 9 9 9 9 10 10 10 11 13 14 15 10 10 11 11 11 11 16 18 18 16 12 14 12 10 10 9 8 8 8 9 10 10 10 8
5 5 6 6 6 6 8 8 8 9 9 10 10 11 9 10 11 13 15 15 15 13 12 11 12 19 20 19 16 15 16 14 8 7 8 7 7 7 7 7 7 6 5
5 5 6 7 6 7 8 9 8 8 8 9 9 10 10 10 11 15 16 17 18 13 12 17 20 21 20 15 15 16 13 9 7 7 7 7 7 6 5 3 3 2 2
5 5 6 7 7 7 6 7 7 8 8 9 10 11 11 11 11 10 12 13 15 14 13 16 19 19 15 14 13 10 8 7 7 7 7 6 6 5 5 5 4 4 3
5 5 6 6 7 7 7 7 8 8 9 11 11 11 12 12 14 19 16 13 13 14 15 13 11 10 9 8 9 8 7 6 7 6 6 6 5 5 5 4 5 5 4
4 5 5 5 6 7 8 8 9 10 14 15 15 15 13 16 21 22 22 21 22 20 16 11 11 10 10 10 9 9 7 7 7 6 6 6 6 5 5 4 4 5 6
4 5 5 6 6 7 8 9 10 11 12 14 15 16 16 19 20 21 21 21 20 17 11 10 10 10 9 9 9 9 8 8 6 6 6 6 6 5 5 5 5 5 6
5 5 6 6 6 7 8 8 9 10 11 11 12 15 17 18 19 20 19 17 12 10 9 9 10 9 9 9 9 8 8 8 7 6 6 6 6 5 6 6 6 6 6
4 4 5 6 6 7 8 8 9 10 10 11 11 12 15 17 18 16 15 10 10 10 10 10 10 10 9 9 9 9 8 8 7 7 6 6 6 5 6 6 5 7 7
4 5 6 6 6 7 7 8 8 9 10 10 11 11 12 13 11 11 10 9 9 10 10 10 10 10 10 10 9 8 8 8 7 7 6 6 5 5 6 6 6 5 5
4 5 6 6 6 7 7 8 9 9 10 10 11 12 17 12 11 11 11 10 10 10 10 10 10 10 10 9 8 8 9 8 7 7 6 5 5 5 5 5 5 5 5
4 4 5 6 6 6 8 8 9 9 10 11 11 12 17 11 10 10 10 10 10 10 10 10 10 10 9 9 8 8 8 8 7 7 6 5 5 4 4 4 5 5 6
4 5 5 6 6 8 8 8 8 9 10 10 11 11 11 10 10 11 11 11 11 10 10 10 10 10 9 9 8 8 8 8 7 7 6 5 5 4 4 4 6 6 7
4 5 6 6 6 7 7 8 8 9 10 10 10 10 10 11 11 12 11 11 11 10 10 10 10 12 13 11 9 8 8 8 8 7 8 6 5 4 4 5 5 7 7
4 5 5 6 6 7 7 8 8 9 9 10 10 10 11 11 11 11 11 11 12 11 12 12 10 10 12 13 12 10 11 12 11 8 6 5 5 5 5 5 6 6 8
4 5 5 5 6 6 7 8 8 9 9 10 10 10 10 11 11 11 11 10 10 11 12 11 11 13 13 11 12 12 13 13 11 10 6 4 5 5 5 5 7 7 9
Wind_Direction
34 36 38 34 32 34 33 26 20 17 18 15 12 11 12 9 4 358 342 317 290 282 275 256 245 239 234 230 230 230 230 232 245 245 226 214 207 213 212 215 215 211 211
31 35 36 33 31 31 28 22 20 20 20 17 16 16 15 12 8 6 359 351 328 309 297 283 269 255 244 236 233 234 234 233 239 245 234 217 221 215 212 211 208 210 209
29 32 32 30 27 25 21 17 17 17 15 14 13 12 10 6 3 1 355 347 335 328 316 293 285 270 259 252 248 244 242 241 239 242 238 224 227 209 209 211 208 208 204
26 27 28 24 20 18 15 13 12 11 10 9 7 5 2 359 358 355 350 343 337 327 323 315 302 289 275 267 254 251 248 244 241 241 239 227 222 209 204 208 211 207 204
25 26 22 16 14 12 10 7 5 4 1 359 358 357 355 354 355 350 343 338 333 328 322 315 308 302 302 286 269 255 248 243 242 241 241 233 225 208 211 208 215 210 209
20 20 13 9 8 7 3 359 358 357 355 353 352 349 348 347 347 345 339 331 327 323 320 317 313 303 298 300 282 265 254 247 243 241 242 239 234 228 221 213 208 207 217
10 7 3 360 359 357 354 354 352 349 347 346 344 341 338 338 339 337 335 327 320 317 315 314 311 310 308 299 295 274 258 250 245 245 246 245 240 231 222 219 213 211 219
358 357 354 350 348 345 345 345 342 338 337 335 332 331 327 328 332 332 330 323 315 313 312 311 310 310 313 312 303 289 270 257 250 247 248 248 246 235 227 225 225 222 221
345 345 343 340 336 335 335 334 332 329 327 325 322 322 321 322 328 330 328 318 312 311 310 309 309 308 313 316 307 296 281 270 257 250 253 253 249 241 231 224 211 205 217
333 330 330 329 327 326 326 325 324 321 317 317 315 315 314 315 322 326 326 317 313 312 310 308 307 308 311 312 306 299 288 281 279 273 267 257 248 236 224 219 211 209 206
317 316 320 322 321 318 318 318 317 315 313 313 312 313 313 314 318 322 324 320 315 312 308 307 306 310 309 307 303 293 290 290 280 271 269 268 258 243 231 228 218 211 207
310 312 316 319 318 315 315 315 315 315 314 315 315 316 315 317 316 317 319 316 313 307 304 303 303 305 305 301 298 292 293 291 279 268 262 260 255 249 241 234 229 227 225
305 310 313 315 317 317 316 316 316 316 315 315 315 315 316 317 315 315 315 314 312 306 300 300 301 301 302 298 292 291 290 285 276 269 264 264 265 254 245 237 232 203 181
301 310 315 317 318 318 314 311 311 312 312 312 313 313 313 313 314 318 317 314 311 307 302 301 300 296 294 293 294 292 286 279 277 272 271 274 275 262 246 229 219 201 189
303 311 314 313 312 312 310 308 306 304 306 309 308 309 309 309 311 314 313 310 310 306 306 301 298 297 297 299 297 292 289 283 280 278 274 272 267 259 252 236 215 211 214
303 309 309 309 310 310 311 308 298 298 304 304 303 304 304 303 309 313 313 312 311 308 306 298 299 299 298 299 298 294 289 283 280 278 272 269 264 257 252 237 223 217 210
295 302 303 305 308 310 311 312 313 312 308 307 309 312 313 315 316 315 315 314 311 311 304 300 299 298 298 297 295 292 289 284 280 272 269 268 263 255 245 234 225 215 209
290 292 296 300 304 306 307 308 308 311 315 316 317 317 318 320 319 317 318 317 312 312 304 301 299 298 297 295 293 292 292 286 278 273 269 265 257 252 243 234 224 215 204
287 294 299 302 303 304 306 306 306 306 307 310 314 317 322 322 319 318 322 316 311 309 307 303 300 298 296 294 291 290 290 288 281 275 270 262 256 249 243 235 226 208 200
282 295 304 303 303 305 307 308 308 308 309 310 312 316 322 320 318 320 321 316 310 307 306 305 303 301 299 295 291 289 288 287 282 275 272 264 256 248 241 231 216 204 202
286 294 299 300 301 305 307 307 307 307 307 308 308 311 317 317 313 313 313 312 311 309 307 305 302 301 299 295 290 287 287 287 284 279 273 266 258 249 239 225 210 201 193
285 293 298 299 300 302 305 306 306 305 306 307 308 312 317 315 309 308 308 308 308 306 303 301 298 296 296 294 290 287 286 286 285 282 274 267 260 244 231 215 202 192 183
282 291 295 296 298 302 305 304 304 304 305 307 308 310 313 313 311 309 308 308 308 307 305 301 298 295 294 294 288 280 277 279 281 281 279 267 256 239 223 208 196 187 180
278 286 292 296 299 300 302 304 305 305 306 307 308 309 310 310 309 309 309 308 307 306 305 302 298 296 295 295 290 283 277 278 280 275 272 261 249 234 217 203 197 190 180
276 284 289 292 295 298 300 302 303 305 306 306 307 307 307 307 307 307 308 307 306 305 304 302 298 297 297 295 291 287 283 283 282 277 270 255 237 225 213 203 193 182 174
275 281 285 287 290 293 296 299 301 304 304 304 304 304 304 304 305 305 307 307 308 308 306 302 299 300 300 297 291 287 286 285 280 275 267 248 233 219 205 199 187 180 171
Height
1458 1457 1456 1455 1454 1453 1452 1450 1449 1448 1446 1444 1443 1442 1440 1439 1439 1438 1438 1437 1438 1438 1438 1439 1439 1441 1442 1443 1445 1446 1448 1450 1450 1451 1453 1455 1456 1458 1460 1461 1463 1464 1465
1460 1459 1458 1456 1455 1453 1452 1451 1449 1447 1445 1444 1442 1440 1438 1437 1436 1435 1434 1433 1433 1432 1431 1431 1432 1433 1434 1436 1437 1438 1439 1441 1443 1443 1444 1445 1447 1449 1451 1452 1454 1455 1457
1462 1460 1458 1456 1455 1453 1452 1450 1448 1446 1444 1442 1440 1438 1437 1435 1433 1432 1431 1429 1428 1427 1426 1426 1426 1426 1427 1428 1429 1430 1431 1433 1434 1435 1435 1437 1438 1440 1442 1443 1445 1447 1449
1464 1461 1459 1457 1456 1454 1452 1450 1448 1446 1443 1441 1439 1437 1435 1433 1431 1429 1428 1426 1424 1422 1421 1420 1420 1419 1419 1420 1420 1421 1422 1424 1425 1426 1427 1428 1429 1431 1433 1435 1436 1438 1440
1465 1463 1460 1459 1456 1454 1452 1450 1447 1445 1443 1440 1438 1435 1433 1431 1429 1426 1424 1422 1420 1418 1416 1415 1414 1413 1412 1412 1412 1413 1414 1415 1415 1417 1418 1419 1420 1422 1424 1426 1428 1430 1432
1465 1463 1461 1459 1456 1453 1451 1448 1446 1443 1441 1438 1436 1433 1431 1428 1426 1423 1421 1418 1416 1414 1411 1410 1408 1407 1405 1405 1405 1405 1406 1406 1406 1408 1409 1410 1410 1413 1415 1417 1419 1421 1422
1465 1462 1460 1458 1455 1452 1450 1447 1444 1441 1438 1436 1433 1430 1428 1425 1422 1420 1417 1414 1412 1409 1407 1404 1403 1401 1400 1398 1397 1397 1397 1397 1399 1400 1400 1400 1402 1404 1407 1408 1409 1411 1412
1464 1461 1459 1456 1453 1451 1448 1445 1442 1439 1436 1433 1430 1427 1424 1421 1418 1415 1412 1409 1407 1404 1402 1399 1397 1395 1393 1392 1390 1388 1388 1388 1390 1391 1391 1392 1394 1396 1397 1399 1401 1403 1405
1462 1460 1457 1454 1452 1449 1446 1442 1439 1436 1433 1429 1426 1423 1420 1416 1414 1410 1407 1404 1401 1399 1397 1394 1392 1389 1387 1385 1383 1380 1379 1379 1381 1382 1382 1383 1385 1386 1389 1391 1392 1394 1394
1460 1458 1455 1452 1449 1446 1443 1439 1436 1433 1429 1426 1422 1419 1415 1412 1409 1406 1403 1399 1396 1394 1391 1388 1386 1384 1381 1379 1377 1375 1372 1371 1372 1372 1373 1374 1375 1376 1378 1380 1382 1384 1386
1457 1455 1452 1449 1446 1443 1439 1436 1432 1429 1425 1422 1418 1415 1411 1408 1404 1402 1398 1395 1392 1389 1386 1383 1380 1378 1375 1373 1372 1369 1367 1365 1364 1364 1364 1364 1366 1367 1369 1371 1373 1375 1376
1454 1452 1449 1446 1443 1439 1436 1432 1429 1425 1421 1418 1414 1411 1407 1404 1400 1397 1394 1391 1388 1384 1380 1377 1374 1372 1369 1367 1365 1363 1361 1359 1358 1357 1356 1356 1357 1358 1360 1362 1364 1366 1368
1451 1448 1445 1442 1439 1436 1432 1429 1425 1421 1418 1414 1410 1406 1403 1399 1396 1392 1389 1385 1382 1379 1375 1372 1369 1366 1363 1360 1358 1356 1355 1353 1352 1350 1349 1349 1350 1351 1352 1353 1355 1358 1361
1447 1444 1441 1438 1435 1432 1428 1425 1421 1418 1414 1410 1406 1402 1398 1395 1391 1388 1384 1380 1377 1373 1369 1366 1363 1360 1357 1355 1352 1350 1349 1348 1347 1345 1344 1343 1343 1344 1344 1346 1348 1351 1353
1443 1440 1438 1435 1431 1428 1425 1422 1418 1414 1411 1407 1403 1399 1395 1390 1387 1384 1380 1376 1372 1369 1365 1361 1357 1354 1351 1349 1347 1345 1343 1342 1341 1340 1339 1338 1338 1338 1339 1340 1342 1344 1346
1439 1436 1434 1431 1427 1424 1420 1417 1413 1410 1406 1402 1398 1395 1390 1387 1382 1378 1375 1371 1367 1364 1360 1356 1353 1350 1347 1345 1342 1340 1339 1337 1336 1335 1334 1333 1333 1333 1333 1334 1336 1339 1341
1435 1433 1430 1427 1423 1420 1416 1412 1408 1405 1402 1398 1394 1390 1385 1381 1377 1373 1369 1365 1362 1359 1355 1352 1349 1346 1343 1340 1338 1336 1334 1333 1331 1330 1329 1329 1328 1328 1328 1329 1331 1333 1336
1431 1429 1426 1422 1419 1416 1412 1408 1404 1400 1396 1392 1389 1385 1380 1376 1372 1368 1364 1360 1356 1354 1351 1348 1345 1342 1339 1336 1334 1332 1330 1328 1327 1326 1325 1324 1324 1324 1324 1325 1327 1329 1331
1427 1424 1421 1418 1415 1412 1408 1404 1401 1396 1392 1387 1383 1379 1376 1371 1367 1363 1360 1356 1352 1349 1346 1343 1340 1337 1335 1332 1330 1327 1325 1324 1322 1321 1320 1320 1319 1319 1320 1321 1322 1324 1326
1423 1420 1417 1414 1411 1408 1404 1400 1396 1392 1388 1384 1379 1375 1371 1366 1363 1359 1356 1352 1349 1345 1342 1339 1336 1333 1330 1327 1325 1323 1321 1319 1318 1317 1316 1316 1315 1315 1315 1316 1318 1320 1322
1418 1416 1413 1410 1407 1404 1400 1396 1392 1388 1384 1380 1376 1372 1368 1364 1359 1355 1352 1348 1345 1341 1338 1334 1331 1328 1326 1323 1321 1319 1317 1315 1314 1313 1312 1312 1311 1311 1312 1313 1314 1316 1319
1414 1411 1409 1406 1403 1399 1396 1392 1389 1385 1380 1376 1372 1368 1364 1360 1356 1352 1348 1344 1341 1337 1333 1330 1326 1324 1321 1319 1316 1315 1313 1311 1310 1309 1309 1308 1308 1308 1308 1309 1311 1313 1315
1410 1407 1405 1402 1399 1395 1392 1388 1384 1381 1376 1372 1368 1364 1360 1356 1352 1348 1344 1340 1336 1333 1329 1325 1322 1319 1316 1314 1312 1311 1309 1307 1307 1306 1305 1305 1305 1305 1305 1306 1308 1310 1312
1405 1403 1400 1398 1394 1391 1388 1384 1380 1376 1373 1369 1364 1361 1357 1353 1348 1344 1340 1336 1332 1328 1324 1321 1317 1314 1312 1310 1308 1306 1305 1304 1303 1303 1302 1302 1302 1302 1303 1304 1306 1308 1310
1401 1399 1396 1393 1390 1387 1383 1380 1376 1372 1369 1365 1361 1357 1353 1349 1345 1340 1336 1332 1328 1324 1320 1317 1313 1310 1308 1305 1304 1302 1301 1300 1300 1300 1299 1299 1299 1300 1301 1302 1304 1306 1309
1397 1395 1392 1389 1386 1383 1379 1376 1372 1369 1365 1361 1357 1353 1349 1345 1341 1337 1333 1329 1325 1321 1317 1313 1310 1307 1304 1302 1300 1299 1297 1297 1297 1297 1297 1297 1297 1298 1299 1301 1303 1305 1307